Regional Weather Roundup
Issued by NWS Upton, NY

Current Version | Previous Version | Text Only | Print | Product List | Glossary Off
Versions: 1 2 3 4 5 6 7 8 9 10 11 12 13 14 15 16 17 18 19 20 21 22 23 24 25 26 27 28 29 30 31 32 33 34 35 36 37 38 39 40 41 42 43 44 45 46 47 48 49 50
000 ASUS41 KOKX 010005 RWROKX REGIONAL WEATHER ROUNDUP NATIONAL WEATHER SERVICE NEW YORK NY 700 PM EST SAT FEB 28 2015 NOTE: "FAIR" INDICATES FEW OR NO CLOUDS BELOW 12,000 FEET WITH NO SIGNIFICANT WEATHER AND/OR OBSTRUCTIONS TO VISIBILITY. NYZ071-072-176-178-NJZ106-104-010100- NEW YORK CITY METRO AREA CITY SKY/WX TMP DP RH WIND PRES REMARKS CENTRAL PARK CLEAR 28 -1 28 CALM 30.76R LAGUARDIA APRT PTCLDY 29 2 31 W3 30.75R KENNEDY INTL PTCLDY 27 9 46 SW9 30.77R WCI 18 NEWARK/LIBERTY PTCLDY 25 7 46 SW8 30.76R WCI 16 BRNX BOT. GARD N/A N/A N/A N/A CALM 30.74R TETERBORO CLEAR 26 2 35 CALM 30.74R $$ NYZ177-179-078>081-010100- LONG ISLAND NEW YORK CITY SKY/WX TMP DP RH WIND PRES REMARKS FARMINGDALE CLEAR 25 2 37 NW3 30.75R ISLIP PTCLDY 24 3 40 W3 30.73R SHIRLEY CLEAR 21 2 43 CALM 30.75S WESTHAMPTON CLEAR 15 2 56 CALM 30.75S MONTAUK POINT N/A 25 12 58 W6 30.75R WCI 18 $$ NYZ052-065-067-010100- HUDSON VALLEY CITY SKY/WX TMP DP RH WIND PRES REMARKS WHITE PLAINS CLEAR 20 1 43 CALM 30.71R NEWBURGH CLEAR 21 5 49 CALM 30.71R MONTGOMERY CLEAR 15 2 56 CALM 30.70R POUGHKEEPSIE CLEAR 18 4 54 CALM 30.73R ALBANY PTCLDY 19 3 49 NW8 30.73R WCI 9 $$ NJZ001-105-106-008-010-013-015-019>022-104-010100- NEW JERSEY CITY SKY/WX TMP DP RH WIND PRES REMARKS NEWARK/LIBERTY PTCLDY 25 7 46 SW8 30.76R WCI 16 TETERBORO CLEAR 26 2 35 CALM 30.74R CALDWELL CLEAR 23 3 42 CALM 30.74R MORRISTOWN CLEAR 25 1 36 S6 30.75R WCI 18 SOMERVILLE CLEAR 24 0 35 CALM 30.74R SUSSEX CLEAR 22 3 44 S3 30.72R ANDOVER N/A 16 3 56 CALM 30.72R TRENTON CLEAR 24 0 35 W3 30.75S MILLVILLE FAIR 23 6 48 W3 30.76S ATLANTIC CITY FAIR 24 12 60 CALM 30.77R WRIGHTSTOWN PTCLDY 23 5 46 CALM 30.74S TOMS RIVER CLEAR 23 9 54 CALM 30.77S BELMAR CLEAR 23 7 50 S5 30.76R WCI 17 $$ PAZ047>061-062-071-010100- EASTERN PENNSYLVANIA CITY SKY/WX TMP DP RH WIND PRES REMARKS PHILADELPHIA PTCLDY 28 2 32 SW7 30.78R WCI 21 ALLENTOWN CLEAR 21 -1 38 W5 30.74R WCI 15 SCRANTON CLEAR 19 2 47 E3 30.68R $$ CTZ002-004>006-009-010-012-RIZ004-006-007-MAZ004-011-015-010100- SOUTHERN NEW ENGLAND IN CT CITY SKY/WX TMP DP RH WIND PRES REMARKS BRADLEY INTL PTCLDY 23 1 38 W7 30.70R WCI 15 HARTFORD CLEAR 27 0 31 W3 30.73R DANBURY CLEAR 16 2 54 CALM 30.72S WTRBRY/OXFORD CLEAR 21 -2 35 CALM 30.69S BRIDGEPORT CLEAR 24 13 62 W5 30.74S WCI 18 MERIDEN CLEAR 19 2 47 CALM 30.73R NEW HAVEN CLEAR 25 13 60 CALM 30.73S CHESTER FAIR 23 12 63 CALM 30.71S GROTON CLEAR 23 13 65 W7 30.73R WCI 15 WILLIMANTIC CLEAR 20 6 55 CALM 30.71R IN RI CITY SKY/WX TMP DP RH WIND PRES REMARKS PROVIDENCE CLEAR 23 13 65 SW5 30.71R WCI 17 BLOCK ISLAND CLEAR 25 10 54 W8 30.71R WCI 16 WESTERLY CLEAR 23 13 65 W5 30.73R WCI 17 IN MA CITY SKY/WX TMP DP RH WIND PRES REMARKS BOSTON CLEAR 27 3 35 SW8 30.70R WCI 19 WORCESTER CLEAR 21 -2 36 SW6 30.63R WCI 13 WESTFIELD CLEAR 25 -4 28 CALM 30.70R PROVINCETOWN FAIR 14 3 62 CALM 30.71R NANTUCKET CLEAR 21 8 57 W7 30.73R WCI 12 $$ ANZ330-335-338-340-345-350-353-355-010100- COASTAL MARINE OBSERVATIONS STATION/POSITION TIME SKY/WX TEMP WIND PRES VSBY WAVE AIR SEA DIR/SP/G HT/PER (UTC) (F) (DEG/KT/KT) (MB) (MI) (FT/S) NY HARB ENTRANCE 0000 27 37 220/ 10/ 12 1041.6 2/10 4S FIRE IS NOT AVBL 20S FIRE ISLAND 2300 37 1041.7 2/10 23SW MTP 0000 N/A 2/ 9 HUDSON CANYON NOT AVBL EXECUTION ROCKS NOT AVBL WESTERN LI SOUND NOT AVBL CENTRAL LI SOUND NOT AVBL EASTERN LI SOUND NOT AVBL ROBBINS REEF 2300 27 170/ 5/ 6 1039.8 $$ >>>>>>>>>>>>>>>>>>>>>>>>>>>> KEY <<<<<<<<<<<<<<<<<<<<<<<<<<< > < > SKY/WX - SKY CONDITION/PRESENT WEATHER < > TMP - TEMPERATURE IN FAHRENHEIT < > DP - DEWPOINT IN FAHRENHEIT < > RH - RELATIVE HUMIDITY IN PERCENT < > WIND - DIRECTION AND SPEED IN MPH < > PRES - MEAN SEA LEVEL PRESSURE IN INCHES OF HG < > WCI - WIND CHILL INDEX < > VSB - VISIBILITY IN MILES < > HX - HEAT INDEX < > TC - TEMPERATURE IN CELSIUS < > VRB - VARIABLE WIND DIRECTION < > < >>>>>>>>>>>>>>>>>>>>>>>>>>>> KEY <<<<<<<<<<<<<<<<<<<<<<<<<<<

USA.gov is the U.S. government's official web portal to all federal, state and local government web resources and services.